Weather History for Medicine Lodge, KS

Change the Weather History Date:

Wednesday, June 19, 2013

  Actual Average Record
Temperature  
Mean Temperature 77 °F 78 °F  
Max Temperature 87 °F 90 °F 110 °F (2011)
Min Temperature 67 °F 66 °F 45 °F (1976)
Degree Days  
Heating Degree Days 0 0  
Month to date heating degree days 4 0  
Since 1 June heating degree days 4 0  
Since 1 July heating degree days 4523 4455  
Cooling Degree Days 12 13  
Month to date cooling degree days 191 196  
Year to date cooling degree days 334 352  
Since 1 June cooling degree days 191 196  
Growing Degree Days 26 (Base 50)    
Moisture  
Dew Point 63 °F    
Average Humidity 61    
Maximum Humidity 81    
Minimum Humidity 40    
Precipitation  
Precipitation 0.00 in 0.12 in 1.03 in (1993)
Month to date precipitation 1.68 2.82  
Year to date precipitation 12.03 12.56  
Snow  
Snow 0.00 in 0.00 in - ()
Month to date snowfall 0.0 0.0  
Since 1 June snowfall 0.0 0.0  
Since 1 July snowfall 25.0 8.5  
Snow Depth 0.00 in    
Sea Level Pressure  
Sea Level Pressure 29.90 in    
Wind  
Wind Speed 11 mph (SSE)    
Max Wind Speed 21 mph    
Max Gust Speed 27 mph    
T = Trace of Precipitation, MM = Missing Value Source: NWS Daily Summary

Daily Weather History Graph

Daily Weather History Graph

Search for Another Location

Airport:

Trip Planner

Search our weather history database for the weather conditions in past years. The results will help you decide how hot, cold, wet, or windy it might be!

Date:

Astronomy

Jun. 19, 2013 Rise Set
Actual Time 6:13 AM CDT 8:57 PM CDT
Civil Twilight 5:42 AM CDT 9:28 PM CDT
Nautical Twilight 5:03 AM CDT 10:07 PM CDT
Astronomical Twilight 4:20 AM CDT 10:51 PM CDT
Moon 4:55 PM CDT (6/19) 2:55 AM CDT (6/19)
Length of Visible Light 15h 46m
Length of Day
14h 43m
Waxing Gibbous, 80% of the Moon is Illuminated
Jun 19
Waxing Gibbous
Jun 23
Full
Jun 29
Last Quarter
Jul 8
New
Jul 15
First Quarter

Hourly Weather History & Observations

Time (CDT) Temp. Heat Index Dew Point Humidity Pressure Visibility Wind Dir Wind Speed Gust Speed Precip Events Conditions
12:56 AM 71.1 °F - 63.0 °F 75% 29.98 in - East 8.1 mph - N/A   Unknown
1:56 AM 70.0 °F - 63.0 °F 78% 29.97 in - ESE 8.1 mph - N/A   Unknown
2:56 AM 69.1 °F - 61.0 °F 75% 29.96 in - ESE 6.9 mph - N/A   Unknown
3:56 AM 68.0 °F - 61.0 °F 78% 29.95 in - SSE 4.6 mph - N/A   Unknown
4:56 AM 68.0 °F - 61.0 °F 78% 29.93 in - South 8.1 mph - N/A   Unknown
5:56 AM 69.1 °F - 62.1 °F 78% 29.93 in - SE 5.8 mph - N/A   Unknown
6:56 AM 66.9 °F - 61.0 °F 81% 29.92 in - East 8.1 mph - N/A   Unknown
7:56 AM 70.0 °F - 63.0 °F 78% 29.95 in - SE 5.8 mph - N/A   Unknown
8:56 AM 73.9 °F - 63.0 °F 68% 29.92 in - SE 9.2 mph 18.4 mph N/A   Unknown
9:56 AM 77.0 °F - 64.0 °F 64% 29.92 in - South 12.7 mph 17.3 mph N/A   Unknown
10:56 AM 79.0 °F - 64.0 °F 60% 29.93 in - South 13.8 mph 20.7 mph N/A   Unknown
11:56 AM 80.1 °F 81.5 °F 63.0 °F 56% 29.93 in - SSE 15.0 mph 23.0 mph N/A   Unknown
12:56 PM 82.0 °F 83.4 °F 64.0 °F 54% 29.92 in - South 15.0 mph 20.7 mph N/A   Unknown
1:56 PM 82.9 °F 83.7 °F 62.1 °F 49% 29.90 in - SSE 15.0 mph 23.0 mph N/A   Unknown
2:56 PM 84.9 °F 85.0 °F 61.0 °F 44% 29.88 in - SSE 13.8 mph 25.3 mph N/A   Unknown
3:56 PM 84.9 °F 85.4 °F 62.1 °F 46% 29.86 in - SSE 15.0 mph 21.9 mph N/A   Unknown
4:56 PM 87.1 °F 87.0 °F 61.0 °F 41% 29.85 in - SSE 10.4 mph 23.0 mph N/A   Unknown
5:56 PM 86.0 °F 86.1 °F 61.0 °F 43% 29.83 in - South 15.0 mph 23.0 mph N/A   Unknown
6:56 PM 84.0 °F 84.4 °F 61.0 °F 46% 29.83 in - South 15.0 mph 21.9 mph N/A   Unknown
7:56 PM 82.0 °F 83.1 °F 63.0 °F 52% 29.84 in - SSE 11.5 mph 25.3 mph N/A   Unknown
8:56 PM 80.1 °F 81.9 °F 64.9 °F 60% 29.86 in - SSE 9.2 mph - N/A   Unknown
9:56 PM 77.0 °F - 66.0 °F 69% 29.88 in - SSE 10.4 mph 18.4 mph N/A   Unknown
10:56 PM 75.9 °F - 66.9 °F 74% 29.89 in - SSE 8.1 mph - N/A   Unknown
11:56 PM 73.9 °F - 66.9 °F 79% 29.89 in - SE 9.2 mph - N/A   Unknown